Year,Month,Day,Hour,Minute,Value (Times are PST for temperature in C)
2015,07,05,00,00,21.30
2015,07,05,00,01,21.20
2015,07,05,00,02,21.10
2015,07,05,00,03,21.10
2015,07,05,00,04,21.00
2015,07,05,00,05,21.00
2015,07,05,00,06,20.90
2015,07,05,00,07,20.90
2015,07,05,00,08,20.90
2015,07,05,00,09,20.90
2015,07,05,00,10,20.90
2015,07,05,00,11,20.90
2015,07,05,00,12,20.90
2015,07,05,00,13,20.90
2015,07,05,00,14,20.90
2015,07,05,00,15,20.90
2015,07,05,00,16,21.00
2015,07,05,00,17,21.00
2015,07,05,00,18,21.00
2015,07,05,00,19,21.00
2015,07,05,00,20,21.00
2015,07,05,00,21,21.00
2015,07,05,00,22,21.00
2015,07,05,00,23,21.00
2015,07,05,00,24,20.90
2015,07,05,00,25,20.90
2015,07,05,00,26,20.90
2015,07,05,00,27,20.90
2015,07,05,00,28,20.90
2015,07,05,00,29,20.90
2015,07,05,00,30,20.90
2015,07,05,00,31,20.90
2015,07,05,00,32,20.80
2015,07,05,00,33,20.80
2015,07,05,00,34,20.70
2015,07,05,00,35,20.60
2015,07,05,00,36,20.60
2015,07,05,00,37,20.50
2015,07,05,00,38,20.50
2015,07,05,00,39,20.40
2015,07,05,00,40,20.40
2015,07,05,00,41,20.30
2015,07,05,00,42,20.30
2015,07,05,00,43,20.30
2015,07,05,00,44,20.30
2015,07,05,00,45,20.20
2015,07,05,00,46,20.20
2015,07,05,00,47,20.20
2015,07,05,00,48,20.20
2015,07,05,00,49,20.20
2015,07,05,00,50,20.20
2015,07,05,00,51,20.20
2015,07,05,00,52,20.20
2015,07,05,00,53,20.30
2015,07,05,00,54,20.40
2015,07,05,00,55,20.50
2015,07,05,00,56,20.60
2015,07,05,00,57,20.60
2015,07,05,00,58,20.60
2015,07,05,00,59,20.60
2015,07,05,01,00,20.60
2015,07,05,01,01,20.60
2015,07,05,01,02,20.60
2015,07,05,01,03,20.60
2015,07,05,01,04,20.60
2015,07,05,01,05,20.50
2015,07,05,01,06,20.50
2015,07,05,01,07,20.50
2015,07,05,01,08,20.50
2015,07,05,01,09,20.50
2015,07,05,01,10,20.50
2015,07,05,01,11,20.50
2015,07,05,01,12,20.60
2015,07,05,01,13,20.60
2015,07,05,01,14,20.60
2015,07,05,01,15,20.70
2015,07,05,01,16,20.70
2015,07,05,01,17,20.70
2015,07,05,01,18,20.70
2015,07,05,01,19,20.80
2015,07,05,01,20,20.80
2015,07,05,01,21,20.80
2015,07,05,01,22,20.90
2015,07,05,01,23,20.90
2015,07,05,01,24,20.90
2015,07,05,01,25,20.90
2015,07,05,01,26,20.90
2015,07,05,01,27,20.90
2015,07,05,01,28,20.90
2015,07,05,01,29,20.80
2015,07,05,01,30,20.80
2015,07,05,01,31,20.80
2015,07,05,01,32,20.80
2015,07,05,01,33,20.80
2015,07,05,01,34,20.70
2015,07,05,01,35,20.70
2015,07,05,01,36,20.70
2015,07,05,01,37,20.80
2015,07,05,01,38,20.80
2015,07,05,01,39,20.80
2015,07,05,01,40,20.80
2015,07,05,01,41,20.80
2015,07,05,01,42,20.80
2015,07,05,01,43,20.80
2015,07,05,01,44,20.80
2015,07,05,01,45,20.70
2015,07,05,01,46,20.70
2015,07,05,01,47,20.60
2015,07,05,01,48,20.50
2015,07,05,01,49,20.50
2015,07,05,01,50,20.40
2015,07,05,01,51,20.40
2015,07,05,01,52,20.30
2015,07,05,01,53,20.20
2015,07,05,01,54,20.20
2015,07,05,01,55,20.20
2015,07,05,01,56,20.20
2015,07,05,01,57,20.20
2015,07,05,01,58,20.20
2015,07,05,01,59,20.20
2015,07,05,02,00,20.20
2015,07,05,02,01,20.30
2015,07,05,02,02,20.30
2015,07,05,02,03,20.40
2015,07,05,02,04,20.40
2015,07,05,02,05,20.40
2015,07,05,02,06,20.40
2015,07,05,02,07,20.40
2015,07,05,02,08,20.40
2015,07,05,02,09,20.40
2015,07,05,02,10,20.40
2015,07,05,02,11,20.40
2015,07,05,02,12,20.40
2015,07,05,02,13,20.50
2015,07,05,02,14,20.60
2015,07,05,02,15,20.60
2015,07,05,02,16,20.60
2015,07,05,02,17,20.60
2015,07,05,02,18,20.60
2015,07,05,02,19,20.60
2015,07,05,02,20,20.70
2015,07,05,02,21,20.70
2015,07,05,02,22,20.70
2015,07,05,02,23,20.70
2015,07,05,02,24,20.70
2015,07,05,02,25,20.70
2015,07,05,02,26,20.70
2015,07,05,02,27,20.70
2015,07,05,02,28,20.70
2015,07,05,02,29,20.70
2015,07,05,02,30,20.70
2015,07,05,02,31,20.70
2015,07,05,02,32,20.80
2015,07,05,02,33,20.80
2015,07,05,02,34,20.80
2015,07,05,02,35,20.80
2015,07,05,02,36,20.80
2015,07,05,02,37,20.80
2015,07,05,02,38,20.90
2015,07,05,02,39,20.90
2015,07,05,02,40,20.90
2015,07,05,02,41,20.90
2015,07,05,02,42,20.90
2015,07,05,02,43,20.90
2015,07,05,02,44,21.00
2015,07,05,02,45,21.00
2015,07,05,02,46,21.00
2015,07,05,02,47,21.00
2015,07,05,02,48,21.00
2015,07,05,02,49,21.00
2015,07,05,02,50,21.00
2015,07,05,02,51,21.00
2015,07,05,02,52,21.00
2015,07,05,02,53,21.00
2015,07,05,02,54,21.00
2015,07,05,02,55,20.90
2015,07,05,02,56,20.90
2015,07,05,02,57,20.90
2015,07,05,02,58,20.90
2015,07,05,02,59,20.90
2015,07,05,03,00,20.90
2015,07,05,03,01,20.80
2015,07,05,03,02,20.90
2015,07,05,03,03,20.90
2015,07,05,03,04,20.90
2015,07,05,03,05,20.90
2015,07,05,03,06,20.90
2015,07,05,03,07,20.90
2015,07,05,03,08,20.90
2015,07,05,03,09,21.00
2015,07,05,03,10,21.00
2015,07,05,03,11,21.00
2015,07,05,03,12,21.00
2015,07,05,03,13,21.00
2015,07,05,03,14,21.00
2015,07,05,03,15,20.90
2015,07,05,03,16,20.90
2015,07,05,03,17,20.90
2015,07,05,03,18,20.90
2015,07,05,03,19,20.90
2015,07,05,03,20,20.80
2015,07,05,03,21,20.80
2015,07,05,03,22,20.80
2015,07,05,03,23,20.80
2015,07,05,03,24,20.80
2015,07,05,03,25,20.80
2015,07,05,03,26,20.70
2015,07,05,03,27,20.70
2015,07,05,03,28,20.70
2015,07,05,03,29,20.70
2015,07,05,03,30,20.60
2015,07,05,03,31,20.60
2015,07,05,03,32,20.60
2015,07,05,03,33,20.50
2015,07,05,03,34,20.50
2015,07,05,03,35,20.50
2015,07,05,03,36,20.40
2015,07,05,03,37,20.40
2015,07,05,03,38,20.40
2015,07,05,03,39,20.40
2015,07,05,03,40,20.40
2015,07,05,03,41,20.30
2015,07,05,03,42,20.30
2015,07,05,03,43,20.30
2015,07,05,03,44,20.30
2015,07,05,03,45,20.20
2015,07,05,03,46,20.20
2015,07,05,03,47,20.20
2015,07,05,03,48,20.20
2015,07,05,03,49,20.20
2015,07,05,03,50,20.10
2015,07,05,03,51,20.10
2015,07,05,03,52,20.10
2015,07,05,03,53,20.10
2015,07,05,03,54,20.10
2015,07,05,03,55,20.10
2015,07,05,03,56,20.10
2015,07,05,03,57,20.00
2015,07,05,03,58,20.00
2015,07,05,03,59,20.00
2015,07,05,04,00,20.00
2015,07,05,04,01,19.90
2015,07,05,04,02,19.90
2015,07,05,04,03,19.90
2015,07,05,04,04,19.90
2015,07,05,04,05,19.90
2015,07,05,04,06,19.90
2015,07,05,04,07,19.90
2015,07,05,04,08,19.90
2015,07,05,04,09,19.80
2015,07,05,04,10,19.80
2015,07,05,04,11,19.80
2015,07,05,04,12,19.80
2015,07,05,04,13,19.80
2015,07,05,04,14,19.80
2015,07,05,04,15,19.70
2015,07,05,04,16,19.70
2015,07,05,04,17,19.70
2015,07,05,04,18,19.70
2015,07,05,04,19,19.60
2015,07,05,04,20,19.60
2015,07,05,04,21,19.60
2015,07,05,04,22,19.60
2015,07,05,04,23,19.60
2015,07,05,04,24,19.60
2015,07,05,04,25,19.50
2015,07,05,04,26,19.50
2015,07,05,04,27,19.50
2015,07,05,04,28,19.50
2015,07,05,04,29,19.40
2015,07,05,04,30,19.40
2015,07,05,04,31,19.40
2015,07,05,04,32,19.40
2015,07,05,04,33,19.40
2015,07,05,04,34,19.40
2015,07,05,04,35,19.40
2015,07,05,04,36,19.30
2015,07,05,04,37,19.40
2015,07,05,04,38,19.40
2015,07,05,04,39,19.40
2015,07,05,04,40,19.40
2015,07,05,04,41,19.30
2015,07,05,04,42,19.40
2015,07,05,04,43,19.30
2015,07,05,04,44,19.30
2015,07,05,04,45,19.30
2015,07,05,04,46,19.30
2015,07,05,04,47,19.30
2015,07,05,04,48,19.30
2015,07,05,04,49,19.30
2015,07,05,04,50,19.30
2015,07,05,04,51,19.30
2015,07,05,04,52,19.30
2015,07,05,04,53,19.30
2015,07,05,04,54,19.30
2015,07,05,04,55,19.30
2015,07,05,04,56,19.30
2015,07,05,04,57,19.30
2015,07,05,04,58,19.30
2015,07,05,04,59,19.30
2015,07,05,05,00,19.40
2015,07,05,05,01,19.40
2015,07,05,05,02,19.40
2015,07,05,05,03,19.40
2015,07,05,05,04,19.40
2015,07,05,05,05,19.40
2015,07,05,05,06,19.40
2015,07,05,05,07,19.40
2015,07,05,05,08,19.40
2015,07,05,05,09,19.40
2015,07,05,05,10,19.40
2015,07,05,05,11,19.40
2015,07,05,05,12,19.40
2015,07,05,05,13,19.40
2015,07,05,05,14,19.40
2015,07,05,05,15,19.40
2015,07,05,05,16,19.40
2015,07,05,05,17,19.40
2015,07,05,05,18,19.40
2015,07,05,05,19,19.40
2015,07,05,05,20,19.40
2015,07,05,05,21,19.40
2015,07,05,05,22,19.40
2015,07,05,05,23,19.40
2015,07,05,05,24,19.40
2015,07,05,05,25,19.40
2015,07,05,05,26,19.40
2015,07,05,05,27,19.40
2015,07,05,05,28,19.40
2015,07,05,05,29,19.40
2015,07,05,05,30,19.40
2015,07,05,05,31,19.40
2015,07,05,05,32,19.40
2015,07,05,05,33,19.40
2015,07,05,05,34,19.30
2015,07,05,05,35,19.30
2015,07,05,05,36,19.30
2015,07,05,05,37,19.30
2015,07,05,05,38,19.30
2015,07,05,05,39,19.30
2015,07,05,05,40,19.30
2015,07,05,05,41,19.30
2015,07,05,05,42,19.30
2015,07,05,05,43,19.30
2015,07,05,05,44,19.30
2015,07,05,05,45,19.30
2015,07,05,05,46,19.30
2015,07,05,05,47,19.30
2015,07,05,05,48,19.30
2015,07,05,05,49,19.30
2015,07,05,05,50,19.30
2015,07,05,05,51,19.20
2015,07,05,05,52,19.20
2015,07,05,05,53,19.20
2015,07,05,05,54,19.20
2015,07,05,05,55,19.30
2015,07,05,05,56,19.30
2015,07,05,05,57,19.30
2015,07,05,05,58,19.30
2015,07,05,05,59,19.30
2015,07,05,06,00,19.30
2015,07,05,06,01,19.30
2015,07,05,06,02,19.30
2015,07,05,06,03,19.30
2015,07,05,06,04,19.30
2015,07,05,06,05,19.30
2015,07,05,06,06,19.30
2015,07,05,06,07,19.30
2015,07,05,06,08,19.30
2015,07,05,06,09,19.30
2015,07,05,06,10,19.30
2015,07,05,06,11,19.30
2015,07,05,06,12,19.30
2015,07,05,06,13,19.40
2015,07,05,06,14,19.40
2015,07,05,06,15,19.40
2015,07,05,06,16,19.40
2015,07,05,06,17,19.50
2015,07,05,06,18,19.50
2015,07,05,06,19,19.50
2015,07,05,06,20,19.50
2015,07,05,06,21,19.50
2015,07,05,06,22,19.60
2015,07,05,06,23,19.60
2015,07,05,06,24,19.60
2015,07,05,06,25,19.60
2015,07,05,06,26,19.60
2015,07,05,06,27,19.60
2015,07,05,06,28,19.70
2015,07,05,06,29,19.70
2015,07,05,06,30,19.70
2015,07,05,06,31,19.70
2015,07,05,06,32,19.70
2015,07,05,06,33,19.70
2015,07,05,06,34,19.70
2015,07,05,06,35,19.70
2015,07,05,06,36,19.70
2015,07,05,06,37,19.70
2015,07,05,06,38,19.70
2015,07,05,06,39,19.70
2015,07,05,06,40,19.70
2015,07,05,06,41,19.70
2015,07,05,06,42,19.70
2015,07,05,06,43,19.70
2015,07,05,06,44,19.70
2015,07,05,06,45,19.70
2015,07,05,06,46,19.70
2015,07,05,06,47,19.70
2015,07,05,06,48,19.70
2015,07,05,06,49,19.70
2015,07,05,06,50,19.70
2015,07,05,06,51,19.70
2015,07,05,06,52,19.70
2015,07,05,06,53,19.70
2015,07,05,06,54,19.70
2015,07,05,06,55,19.70
2015,07,05,06,56,19.70
2015,07,05,06,57,19.60
2015,07,05,06,58,19.60
2015,07,05,06,59,19.60
2015,07,05,07,00,19.60
2015,07,05,07,01,19.60
2015,07,05,07,02,19.60
2015,07,05,07,03,19.60
2015,07,05,07,04,19.60
2015,07,05,07,05,19.60
2015,07,05,07,06,19.60
2015,07,05,07,07,19.60
2015,07,05,07,08,19.60
2015,07,05,07,09,19.60
2015,07,05,07,10,19.70
2015,07,05,07,11,19.70
2015,07,05,07,12,19.70
2015,07,05,07,13,19.70
2015,07,05,07,14,19.70
2015,07,05,07,15,19.70
2015,07,05,07,16,19.70
2015,07,05,07,17,19.70
2015,07,05,07,18,19.70
2015,07,05,07,19,19.80
2015,07,05,07,20,19.80
2015,07,05,07,21,19.80
2015,07,05,07,22,19.80
2015,07,05,07,23,19.90
2015,07,05,07,24,19.90
2015,07,05,07,25,19.90
2015,07,05,07,26,19.90
2015,07,05,07,27,20.00
2015,07,05,07,28,20.00
2015,07,05,07,29,20.10
2015,07,05,07,30,20.10
2015,07,05,07,31,20.10
2015,07,05,07,32,20.10
2015,07,05,07,33,20.20
2015,07,05,07,34,20.20
2015,07,05,07,35,20.30
2015,07,05,07,36,20.30
2015,07,05,07,37,20.30
2015,07,05,07,38,20.30
2015,07,05,07,39,20.40
2015,07,05,07,40,20.40
2015,07,05,07,41,20.40
2015,07,05,07,42,20.40
2015,07,05,07,43,20.50
2015,07,05,07,44,20.50
2015,07,05,07,45,20.50
2015,07,05,07,46,20.60
2015,07,05,07,47,20.60
2015,07,05,07,48,20.60
2015,07,05,07,49,20.60
2015,07,05,07,50,20.60
2015,07,05,07,51,20.70
2015,07,05,07,52,20.70
2015,07,05,07,53,20.70
2015,07,05,07,54,20.70
2015,07,05,07,55,20.70
2015,07,05,07,56,20.70
2015,07,05,07,57,20.70
2015,07,05,07,58,20.70
2015,07,05,07,59,20.70
2015,07,05,08,00,20.70
2015,07,05,08,01,20.70
2015,07,05,08,02,20.70
2015,07,05,08,03,20.70
2015,07,05,08,04,20.70
2015,07,05,08,05,20.70
2015,07,05,08,06,20.70
2015,07,05,08,07,20.70
2015,07,05,08,08,20.70
2015,07,05,08,09,20.70
2015,07,05,08,10,20.70
2015,07,05,08,11,20.70
2015,07,05,08,12,20.70
2015,07,05,08,13,20.70
2015,07,05,08,14,20.70
2015,07,05,08,15,20.70
2015,07,05,08,16,20.70
2015,07,05,08,17,20.70
2015,07,05,08,18,20.70
2015,07,05,08,19,20.70
2015,07,05,08,20,20.70
2015,07,05,08,21,20.70
2015,07,05,08,22,20.70
2015,07,05,08,23,20.70
2015,07,05,08,24,20.70
2015,07,05,08,25,20.70
2015,07,05,08,26,20.70
2015,07,05,08,27,20.70
2015,07,05,08,28,20.70
2015,07,05,08,29,20.70
2015,07,05,08,30,20.70
2015,07,05,08,31,20.70
2015,07,05,08,32,20.70
2015,07,05,08,33,20.70
2015,07,05,08,34,20.70
2015,07,05,08,35,20.70
2015,07,05,08,36,20.70
2015,07,05,08,37,20.80
2015,07,05,08,38,20.80
2015,07,05,08,39,20.80
2015,07,05,08,40,20.80
2015,07,05,08,41,20.80
2015,07,05,08,42,20.80
2015,07,05,08,43,20.80
2015,07,05,08,44,20.80
2015,07,05,08,45,20.80
2015,07,05,08,46,20.90
2015,07,05,08,47,20.90
2015,07,05,08,48,20.90
2015,07,05,08,49,20.90
2015,07,05,08,50,20.90
2015,07,05,08,51,20.90
2015,07,05,08,52,21.00
2015,07,05,08,53,21.00
2015,07,05,08,54,21.00
2015,07,05,08,55,21.10
2015,07,05,08,56,21.10
2015,07,05,08,57,21.10
2015,07,05,08,58,21.10
2015,07,05,08,59,21.10
2015,07,05,09,00,21.20
2015,07,05,09,01,21.20
2015,07,05,09,02,21.20
2015,07,05,09,03,21.20
2015,07,05,09,04,21.20
2015,07,05,09,05,21.20
2015,07,05,09,06,21.20
2015,07,05,09,07,21.30
2015,07,05,09,08,21.30
2015,07,05,09,09,21.30
2015,07,05,09,10,21.30
2015,07,05,09,11,21.40
2015,07,05,09,12,21.40
2015,07,05,09,13,21.40
2015,07,05,09,14,21.50
2015,07,05,09,15,21.50
2015,07,05,09,16,21.60
2015,07,05,09,17,21.60
2015,07,05,09,18,21.70
2015,07,05,09,19,21.70
2015,07,05,09,20,21.70
2015,07,05,09,21,21.70
2015,07,05,09,22,21.80
2015,07,05,09,23,21.80
2015,07,05,09,24,21.80
2015,07,05,09,25,21.80
2015,07,05,09,26,21.80
2015,07,05,09,27,21.90
2015,07,05,09,28,21.90
2015,07,05,09,29,22.00
2015,07,05,09,30,22.00
2015,07,05,09,31,22.10
2015,07,05,09,32,22.10
2015,07,05,09,33,22.10
2015,07,05,09,34,22.10
2015,07,05,09,35,22.10
2015,07,05,09,36,22.20
2015,07,05,09,37,22.20
2015,07,05,09,38,22.20
2015,07,05,09,39,22.20
2015,07,05,09,40,22.20
2015,07,05,09,41,22.30
2015,07,05,09,42,22.30
2015,07,05,09,43,22.30
2015,07,05,09,44,22.40
2015,07,05,09,45,22.40
2015,07,05,09,46,22.40
2015,07,05,09,47,22.40
2015,07,05,09,48,22.50
2015,07,05,09,49,22.50
2015,07,05,09,50,22.50
2015,07,05,09,51,22.60
2015,07,05,09,52,22.60
2015,07,05,09,53,22.70
2015,07,05,09,54,22.70
2015,07,05,09,55,22.80
2015,07,05,09,56,22.80
2015,07,05,09,57,22.90
2015,07,05,09,58,22.90
2015,07,05,09,59,23.00
2015,07,05,10,00,23.00
2015,07,05,10,01,23.10
2015,07,05,10,02,23.10
2015,07,05,10,03,23.20
2015,07,05,10,04,23.20
2015,07,05,10,05,23.30
2015,07,05,10,06,23.30
2015,07,05,10,07,23.30
2015,07,05,10,08,23.30
2015,07,05,10,09,23.30
2015,07,05,10,10,23.40
2015,07,05,10,11,23.40
2015,07,05,10,12,23.40
2015,07,05,10,13,23.40
2015,07,05,10,14,23.40
2015,07,05,10,15,23.40
2015,07,05,10,16,23.40
2015,07,05,10,17,23.40
2015,07,05,10,18,23.50
2015,07,05,10,19,23.50
2015,07,05,10,20,23.60
2015,07,05,10,21,23.60
2015,07,05,10,22,23.60
2015,07,05,10,23,23.60
2015,07,05,10,24,23.60
2015,07,05,10,25,23.60
2015,07,05,10,26,23.70
2015,07,05,10,27,23.70
2015,07,05,10,28,23.70
2015,07,05,10,29,23.70
2015,07,05,10,30,23.70
2015,07,05,10,31,23.70
2015,07,05,10,32,23.70
2015,07,05,10,33,23.70
2015,07,05,10,34,23.70
2015,07,05,10,35,23.80
2015,07,05,10,36,23.80
2015,07,05,10,37,23.80
2015,07,05,10,38,23.80
2015,07,05,10,39,23.80
2015,07,05,10,40,23.80
2015,07,05,10,41,23.90
2015,07,05,10,42,23.90
2015,07,05,10,43,23.90
2015,07,05,10,44,23.90
2015,07,05,10,45,23.90
2015,07,05,10,46,24.00
2015,07,05,10,47,24.00
2015,07,05,10,48,24.00
2015,07,05,10,49,24.00
2015,07,05,10,50,24.00
2015,07,05,10,51,24.00
2015,07,05,10,52,24.10
2015,07,05,10,53,24.10
2015,07,05,10,54,24.10
2015,07,05,10,55,24.10
2015,07,05,10,56,24.20
2015,07,05,10,57,24.20
2015,07,05,10,58,24.20
2015,07,05,10,59,24.20
2015,07,05,11,00,24.20
2015,07,05,11,01,24.30
2015,07,05,11,02,24.30
2015,07,05,11,03,24.30
2015,07,05,11,04,24.30
2015,07,05,11,05,24.30
2015,07,05,11,06,24.30
2015,07,05,11,07,24.30
2015,07,05,11,08,24.40
2015,07,05,11,09,24.40
2015,07,05,11,10,24.40
2015,07,05,11,11,24.40
2015,07,05,11,12,24.40
2015,07,05,11,13,24.50
2015,07,05,11,14,24.50
2015,07,05,11,15,24.50
2015,07,05,11,16,24.50
2015,07,05,11,17,24.60
2015,07,05,11,18,24.60
2015,07,05,11,19,24.60
2015,07,05,11,20,24.60
2015,07,05,11,21,24.70
2015,07,05,11,22,24.70
2015,07,05,11,23,24.70
2015,07,05,11,24,24.80
2015,07,05,11,25,24.80
2015,07,05,11,26,24.80
2015,07,05,11,27,24.80
2015,07,05,11,28,24.90
2015,07,05,11,29,24.90
2015,07,05,11,30,24.90
2015,07,05,11,31,24.90
2015,07,05,11,32,25.00
2015,07,05,11,33,25.00
2015,07,05,11,34,25.00
2015,07,05,11,35,25.00
2015,07,05,11,36,25.10
2015,07,05,11,37,25.10
2015,07,05,11,38,25.10
2015,07,05,11,39,25.10
2015,07,05,11,40,25.20
2015,07,05,11,41,25.20
2015,07,05,11,42,25.30
2015,07,05,11,43,25.30
2015,07,05,11,44,25.40
2015,07,05,11,45,25.50
2015,07,05,11,46,25.60
2015,07,05,11,47,25.60
2015,07,05,11,48,25.60
2015,07,05,11,49,25.70
2015,07,05,11,50,25.70
2015,07,05,11,51,25.70
2015,07,05,11,52,25.80
2015,07,05,11,53,25.80
2015,07,05,11,54,25.80
2015,07,05,11,55,25.90
2015,07,05,11,56,25.90
2015,07,05,11,57,25.90
2015,07,05,11,58,25.90
2015,07,05,11,59,25.90
2015,07,05,12,00,25.90
2015,07,05,12,01,26.00
2015,07,05,12,02,26.10
2015,07,05,12,03,26.10
2015,07,05,12,04,26.10
2015,07,05,12,05,26.20
2015,07,05,12,06,26.30
2015,07,05,12,07,26.30
2015,07,05,12,08,26.40
2015,07,05,12,09,26.40
2015,07,05,12,10,26.50
2015,07,05,12,11,26.50
2015,07,05,12,12,26.60
2015,07,05,12,13,26.60
2015,07,05,12,14,26.70
2015,07,05,12,15,26.70
2015,07,05,12,16,26.80
2015,07,05,12,17,26.80
2015,07,05,12,18,26.90
2015,07,05,12,19,26.90
2015,07,05,12,20,27.00
2015,07,05,12,21,27.00
2015,07,05,12,22,27.10
2015,07,05,12,23,27.10
2015,07,05,12,24,27.20
2015,07,05,12,25,27.30
2015,07,05,12,26,27.30
2015,07,05,12,27,27.40
2015,07,05,12,28,27.50
2015,07,05,12,29,27.50
2015,07,05,12,30,27.60
2015,07,05,12,31,27.70
2015,07,05,12,32,27.70
2015,07,05,12,33,27.80
2015,07,05,12,34,27.80
2015,07,05,12,35,27.80
2015,07,05,12,36,27.90
2015,07,05,12,37,27.90
2015,07,05,12,38,27.90
2015,07,05,12,39,27.90
2015,07,05,12,40,28.00
2015,07,05,12,41,28.00
2015,07,05,12,42,28.00
2015,07,05,12,43,28.10
2015,07,05,12,44,28.10
2015,07,05,12,45,28.10
2015,07,05,12,46,28.10
2015,07,05,12,47,28.10
2015,07,05,12,48,28.20
2015,07,05,12,49,28.30
2015,07,05,12,50,28.30
2015,07,05,12,51,28.40
2015,07,05,12,52,28.40
2015,07,05,12,53,28.50
2015,07,05,12,54,28.50
2015,07,05,12,55,28.60
2015,07,05,12,56,28.60
2015,07,05,12,57,28.60
2015,07,05,12,58,28.60
2015,07,05,12,59,28.60
2015,07,05,13,00,28.60
2015,07,05,13,01,28.60
2015,07,05,13,02,28.60
2015,07,05,13,03,28.60
2015,07,05,13,04,28.70
2015,07,05,13,05,28.70
2015,07,05,13,06,28.70
2015,07,05,13,07,28.80
2015,07,05,13,08,28.80
2015,07,05,13,09,28.80
2015,07,05,13,10,28.90
2015,07,05,13,11,28.90
2015,07,05,13,12,29.00
2015,07,05,13,13,29.00
2015,07,05,13,14,29.00
2015,07,05,13,15,29.00
2015,07,05,13,16,28.90
2015,07,05,13,17,28.90
2015,07,05,13,18,28.90
2015,07,05,13,19,28.90
2015,07,05,13,20,28.90
2015,07,05,13,21,28.90
2015,07,05,13,22,29.00
2015,07,05,13,23,29.10
2015,07,05,13,24,29.10
2015,07,05,13,25,29.20
2015,07,05,13,26,29.20
2015,07,05,13,27,29.20
2015,07,05,13,28,29.20
2015,07,05,13,29,29.20
2015,07,05,13,30,29.30
2015,07,05,13,31,29.30
2015,07,05,13,32,29.30
2015,07,05,13,33,29.30
2015,07,05,13,34,29.30
2015,07,05,13,35,29.20
2015,07,05,13,36,29.20
2015,07,05,13,37,29.20
2015,07,05,13,38,29.20
2015,07,05,13,39,29.10
2015,07,05,13,40,29.10
2015,07,05,13,41,29.10
2015,07,05,13,42,29.10
2015,07,05,13,43,29.00
2015,07,05,13,44,28.90
2015,07,05,13,45,28.90
2015,07,05,13,46,28.80
2015,07,05,13,47,28.90
2015,07,05,13,48,28.90
2015,07,05,13,49,29.00
2015,07,05,13,50,29.10
2015,07,05,13,51,29.10
2015,07,05,13,52,29.10
2015,07,05,13,53,29.10
2015,07,05,13,54,29.10
2015,07,05,13,55,29.10
2015,07,05,13,56,29.00
2015,07,05,13,57,29.00
2015,07,05,13,58,28.90
2015,07,05,13,59,28.90
2015,07,05,14,00,28.80
2015,07,05,14,01,28.80
2015,07,05,14,02,28.80
2015,07,05,14,03,28.80
2015,07,05,14,04,28.90
2015,07,05,14,05,28.90
2015,07,05,14,06,28.90
2015,07,05,14,07,28.90
2015,07,05,14,08,28.90
2015,07,05,14,09,28.90
2015,07,05,14,10,28.90
2015,07,05,14,11,28.90
2015,07,05,14,12,28.90
2015,07,05,14,13,28.90
2015,07,05,14,14,28.90
2015,07,05,14,15,29.00
2015,07,05,14,16,29.00
2015,07,05,14,17,29.10
2015,07,05,14,18,29.10
2015,07,05,14,19,29.10
2015,07,05,14,20,29.20
2015,07,05,14,21,29.30
2015,07,05,14,22,29.30
2015,07,05,14,23,29.40
2015,07,05,14,24,29.40
2015,07,05,14,25,29.50
2015,07,05,14,26,29.60
2015,07,05,14,27,29.60
2015,07,05,14,28,29.70
2015,07,05,14,29,29.70
2015,07,05,14,30,29.70
2015,07,05,14,31,29.70
2015,07,05,14,32,29.70
2015,07,05,14,33,29.60
2015,07,05,14,34,29.60
2015,07,05,14,35,29.60
2015,07,05,14,36,29.60
2015,07,05,14,37,29.60
2015,07,05,14,38,29.60
2015,07,05,14,39,29.70
2015,07,05,14,40,29.70
2015,07,05,14,41,29.70
2015,07,05,14,42,29.80
2015,07,05,14,43,29.80
2015,07,05,14,44,29.80
2015,07,05,14,45,29.80
2015,07,05,14,46,29.80
2015,07,05,14,47,29.80
2015,07,05,14,48,29.90
2015,07,05,14,49,29.90
2015,07,05,14,50,29.90
2015,07,05,14,51,30.00
2015,07,05,14,52,30.00
2015,07,05,14,53,30.00
2015,07,05,14,54,30.00
2015,07,05,14,55,30.00
2015,07,05,14,56,30.00
2015,07,05,14,57,30.00
2015,07,05,14,58,30.00
2015,07,05,14,59,30.00
2015,07,05,15,00,30.00
2015,07,05,15,01,30.00
2015,07,05,15,02,30.00
2015,07,05,15,03,30.00
2015,07,05,15,04,30.10
2015,07,05,15,05,30.10
2015,07,05,15,06,30.00
2015,07,05,15,07,30.00
2015,07,05,15,08,29.90
2015,07,05,15,09,29.90
2015,07,05,15,10,29.80
2015,07,05,15,11,29.80
2015,07,05,15,12,29.80
2015,07,05,15,13,29.70
2015,07,05,15,14,29.70
2015,07,05,15,15,29.60
2015,07,05,15,16,29.60
2015,07,05,15,17,29.50
2015,07,05,15,18,29.40
2015,07,05,15,19,29.40
2015,07,05,15,20,29.30
2015,07,05,15,21,29.30
2015,07,05,15,22,29.30
2015,07,05,15,23,29.40
2015,07,05,15,24,29.40
2015,07,05,15,25,29.40
2015,07,05,15,26,29.40
2015,07,05,15,27,29.40
2015,07,05,15,28,29.40
2015,07,05,15,29,29.40
2015,07,05,15,30,29.40
2015,07,05,15,31,29.40
2015,07,05,15,32,29.30
2015,07,05,15,33,29.30
2015,07,05,15,34,29.20
2015,07,05,15,35,29.20
2015,07,05,15,36,29.10
2015,07,05,15,37,29.10
2015,07,05,15,38,29.00
2015,07,05,15,39,29.00
2015,07,05,15,40,28.90
2015,07,05,15,41,28.90
2015,07,05,15,42,28.90
2015,07,05,15,43,28.90
2015,07,05,15,44,28.90
2015,07,05,15,45,28.90
2015,07,05,15,46,29.00
2015,07,05,15,47,29.00
2015,07,05,15,48,29.00
2015,07,05,15,49,29.00
2015,07,05,15,50,28.90
2015,07,05,15,51,28.90
2015,07,05,15,52,28.90
2015,07,05,15,53,28.90
2015,07,05,15,54,28.80
2015,07,05,15,55,28.70
2015,07,05,15,56,28.60
2015,07,05,15,57,28.50
2015,07,05,15,58,28.40
2015,07,05,15,59,28.40
2015,07,05,16,00,28.40
2015,07,05,16,01,28.40
2015,07,05,16,02,28.40
2015,07,05,16,03,28.40
2015,07,05,16,04,28.40
2015,07,05,16,05,28.40
2015,07,05,16,06,28.50
2015,07,05,16,07,28.50
2015,07,05,16,08,28.60
2015,07,05,16,09,28.60
2015,07,05,16,10,28.70
2015,07,05,16,11,28.70
2015,07,05,16,12,28.80
2015,07,05,16,13,28.80
2015,07,05,16,14,28.80
2015,07,05,16,15,28.80
2015,07,05,16,16,28.90
2015,07,05,16,17,28.80
2015,07,05,16,18,28.90
2015,07,05,16,19,28.90
2015,07,05,16,20,28.80
2015,07,05,16,21,28.80
2015,07,05,16,22,28.80
2015,07,05,16,23,28.80
2015,07,05,16,24,28.80
2015,07,05,16,25,28.80
2015,07,05,16,26,28.80
2015,07,05,16,27,28.80
2015,07,05,16,28,28.80
2015,07,05,16,29,28.90
2015,07,05,16,30,28.80
2015,07,05,16,31,28.80
2015,07,05,16,32,28.80
2015,07,05,16,33,28.80
2015,07,05,16,34,28.80
2015,07,05,16,35,28.80
2015,07,05,16,36,28.80
2015,07,05,16,37,28.80
2015,07,05,16,38,28.70
2015,07,05,16,39,28.70
2015,07,05,16,40,28.70
2015,07,05,16,41,28.70
2015,07,05,16,42,28.80
2015,07,05,16,43,28.80
2015,07,05,16,44,28.80
2015,07,05,16,45,28.90
2015,07,05,16,46,28.90
2015,07,05,16,47,28.80
2015,07,05,16,48,28.80
2015,07,05,16,49,28.80
2015,07,05,16,50,28.80
2015,07,05,16,51,28.80
2015,07,05,16,52,28.80
2015,07,05,16,53,28.80
2015,07,05,16,54,28.70
2015,07,05,16,55,28.70
2015,07,05,16,56,28.70
2015,07,05,16,57,28.70
2015,07,05,16,58,28.60
2015,07,05,16,59,28.60
2015,07,05,17,00,28.60
2015,07,05,17,01,28.50
2015,07,05,17,02,28.40
2015,07,05,17,03,28.40
2015,07,05,17,04,28.30
2015,07,05,17,05,28.30
2015,07,05,17,06,28.20
2015,07,05,17,07,28.20
2015,07,05,17,08,28.20
2015,07,05,17,09,28.10
2015,07,05,17,10,28.10
2015,07,05,17,11,28.10
2015,07,05,17,12,28.00
2015,07,05,17,13,27.90
2015,07,05,17,14,27.90
2015,07,05,17,15,27.80
2015,07,05,17,16,27.80
2015,07,05,17,17,27.80
2015,07,05,17,18,27.80
2015,07,05,17,19,27.80